IBE31RR LEMD-LGAV

Flight info

Callsign IBE31RR
Flight time N/A
Altitude 36000
Route PINAR N870 BCN N725 OSPOK DCT NOLVI DCT ORKUM DCT ELSAG DCT ALG/N0439F370 DCT QUENN DCT RONAB DCT NERAR DCT CRN DCT RUTOM UN604 ARA UY144 NEMES
Aircraft A320/M-SDE3FGHIRWY/LB1

Departure

Time 2026-05-01 15:01
Airport Adolfo Suárez Madrid–Barajas Airport (LEMD)

Arrival

Time N/A
Airport Athens Eleftherios Venizelos International Airport (LGAV)
Time Latitude Longitude Altitude Speed Heading
2026-05-01 14:47 40.49352 -3.56644 1971 ft 0 kts 271°
2026-05-01 14:54 40.49351 -3.56618 1973 ft 4 kts 274°
2026-05-01 14:55 40.49348 -3.56583 1971 ft 4 kts 284°
2026-05-01 14:55 40.49338 -3.56552 1973 ft 4 kts 321°
2026-05-01 14:55 40.49325 -3.56544 1973 ft 1 kts 360°
2026-05-01 14:55 40.49322 -3.56544 1973 ft 0 kts 360°
2026-05-01 14:58 40.49360 -3.56544 1973 ft 14 kts 359°
2026-05-01 14:58 40.49443 -3.56545 1969 ft 10 kts 359°
2026-05-01 14:58 40.49510 -3.56544 1969 ft 9 kts 360°
2026-05-01 14:59 40.49550 -3.56450 1967 ft 15 kts 89°
2026-05-01 14:59 40.49553 -3.56311 1963 ft 16 kts 89°
2026-05-01 14:59 40.49553 -3.56155 1959 ft 18 kts 90°
2026-05-01 14:59 40.49551 -3.55992 1960 ft 17 kts 91°
2026-05-01 15:00 40.49322 -3.55621 1961 ft 73 kts 142°
2026-05-01 15:00 40.48746 -3.55039 1950 ft 134 kts 142°
2026-05-01 15:00 40.47874 -3.54147 1952 ft 180 kts 144°
2026-05-01 15:01 40.46890 -3.53080 2455 ft 185 kts 144°
2026-05-01 15:01 40.45883 -3.52041 3225 ft 182 kts 145°
2026-05-01 15:01 40.44874 -3.51033 3959 ft 187 kts 145°
2026-05-01 15:01 40.43779 -3.49947 4235 ft 208 kts 144°
2026-05-01 15:02 40.42817 -3.48440 4591 ft 226 kts 121°
2026-05-01 15:02 40.42574 -3.47811 4727 ft 233 kts 119°
2026-05-01 15:02 40.41369 -3.44578 5952 ft 240 kts 118°
2026-05-01 15:02 40.40640 -3.42592 6689 ft 242 kts 118°
2026-05-01 15:03 40.39909 -3.40590 7374 ft 245 kts 118°
2026-05-01 15:03 40.39202 -3.38538 8048 ft 249 kts 110°
2026-05-01 15:03 40.39050 -3.36220 8737 ft 259 kts 82°
2026-05-01 15:03 40.39720 -3.34050 9427 ft 267 kts 54°
2026-05-01 15:04 40.41168 -3.32429 9823 ft 285 kts 22°
2026-05-01 15:04 40.43144 -3.31844 10413 ft 291 kts
2026-05-01 15:04 40.45172 -3.31363 10809 ft 309 kts 19°
2026-05-01 15:04 40.47074 -3.29846 11002 ft 332 kts 43°
2026-05-01 15:05 40.48752 -3.27634 11223 ft 353 kts 46°
2026-05-01 15:05 40.50476 -3.25282 11807 ft 360 kts 46°
2026-05-01 15:05 40.52216 -3.22886 12474 ft 365 kts 46°
2026-05-01 15:05 40.53981 -3.20457 13152 ft 369 kts 46°
2026-05-01 15:06 40.55766 -3.18007 13818 ft 373 kts 46°
2026-05-01 15:06 40.57567 -3.15544 14417 ft 376 kts 46°
2026-05-01 15:06 40.59394 -3.13051 15029 ft 379 kts 45°
2026-05-01 15:06 40.61236 -3.10544 15647 ft 383 kts 45°
2026-05-01 15:07 40.63096 -3.08015 16254 ft 386 kts 45°
2026-05-01 15:07 40.64965 -3.05470 16838 ft 389 kts 45°
2026-05-01 15:07 40.66849 -3.02895 17441 ft 392 kts 45°
2026-05-01 15:07 40.68746 -3.00295 18028 ft 394 kts 45°
2026-05-01 15:08 40.70653 -2.97676 18582 ft 397 kts 45°
2026-05-01 15:08 40.72569 -2.95042 19062 ft 400 kts 45°
2026-05-01 15:08 40.74501 -2.92391 19562 ft 403 kts 45°
2026-05-01 15:08 40.76453 -2.89716 20056 ft 406 kts 45°
2026-05-01 15:09 40.78419 -2.87018 20540 ft 409 kts 45°
2026-05-01 15:09 40.79757 -2.85178 20859 ft 411 kts 45°
2026-05-01 15:09 40.82389 -2.81556 21483 ft 415 kts 45°
2026-05-01 15:09 40.83743 -2.79692 21786 ft 417 kts 45°
2026-05-01 15:10 40.85760 -2.76913 22240 ft 420 kts 45°
2026-05-01 15:10 40.89821 -2.71295 23120 ft 426 kts 45°
2026-05-01 15:10 40.91874 -2.68455 23555 ft 429 kts 45°
2026-05-01 15:11 40.93940 -2.65596 23941 ft 432 kts 46°
2026-05-01 15:11 40.98100 -2.59811 24651 ft 437 kts 47°
2026-05-01 15:11 40.99810 -2.56472 24988 ft 439 kts 65°
2026-05-01 15:12 41.00664 -2.52612 25304 ft 441 kts 84°
2026-05-01 15:12 41.01110 -2.44499 25926 ft 446 kts 78°
2026-05-01 15:12 41.01766 -2.40471 26259 ft 448 kts 78°
2026-05-01 15:13 41.03988 -2.28346 27225 ft 455 kts 76°
2026-05-01 15:14 41.05578 -2.20185 27869 ft 460 kts 75°
2026-05-01 15:14 41.06369 -2.16070 28186 ft 462 kts 76°
2026-05-01 15:14 41.07931 -2.07766 28776 ft 466 kts 76°
2026-05-01 15:15 41.09492 -1.99380 29343 ft 471 kts 76°
2026-05-01 15:15 41.11058 -1.90917 29885 ft 475 kts 76°
2026-05-01 15:16 41.12645 -1.82320 30404 ft 479 kts 75°
2026-05-01 15:16 41.14222 -1.73729 30908 ft 481 kts 75°
2026-05-01 15:17 41.15797 -1.65122 31597 ft 478 kts 75°
2026-05-01 15:18 41.18129 -1.52298 32576 ft 475 kts 76°
2026-05-01 15:18 41.18901 -1.48046 32885 ft 474 kts 75°
2026-05-01 15:19 41.21213 -1.35302 33807 ft 473 kts 75°
2026-05-01 15:19 41.22741 -1.26805 34402 ft 472 kts 75°
2026-05-01 15:19 41.23497 -1.22579 34679 ft 472 kts 76°
2026-05-01 15:20 41.25008 -1.14096 35161 ft 472 kts 76°
2026-05-01 15:20 41.25763 -1.09849 35397 ft 471 kts 76°
2026-05-01 15:20 41.26515 -1.05607 35618 ft 471 kts 75°
2026-05-01 15:21 41.27265 -1.01368 35835 ft 471 kts 75°
2026-05-01 15:21 41.28017 -0.97133 36053 ft 471 kts 75°
2026-05-01 15:21 41.28766 -0.92892 36155 ft 471 kts 75°
2026-05-01 15:22 41.30982 -0.80213 36167 ft 469 kts 76°
2026-05-01 15:22 41.32453 -0.71761 36167 ft 469 kts 76°
2026-05-01 15:23 41.33912 -0.63305 35989 ft 471 kts 76°
2026-05-01 15:23 41.34647 -0.59028 35882 ft 466 kts 76°
2026-05-01 15:23 41.35232 -0.54785 36095 ft 467 kts 83°
2026-05-01 15:24 41.35354 -0.46104 36183 ft 471 kts 90°
2026-05-01 15:24 41.35277 -0.37381 36192 ft 471 kts 91°
2026-05-01 15:25 41.35199 -0.28691 36198 ft 470 kts 90°
2026-05-01 15:25 41.35129 -0.19993 36198 ft 469 kts 91°
2026-05-01 15:26 41.35048 -0.11302 36202 ft 469 kts 91°
2026-05-01 15:26 41.34958 -0.02647 36200 ft 468 kts 91°
2026-05-01 15:27 41.34859 0.06022 36209 ft 468 kts 91°
2026-05-01 15:28 41.34709 0.18984 36203 ft 467 kts 91°
2026-05-01 15:28 41.34595 0.27612 36203 ft 466 kts 91°
2026-05-01 15:29 41.34419 0.40586 36214 ft 465 kts 92°
2026-05-01 15:30 41.34155 0.57756 36203 ft 464 kts 92°
2026-05-01 15:31 41.33723 0.83475 36221 ft 463 kts 92°
2026-05-01 15:32 41.33405 1.00574 36214 ft 462 kts 92°
2026-05-01 15:34 41.32865 1.26209 36226 ft 462 kts 93°